Powrót do katalogu

OPS 7684 DEB

AktywnyPO
NORAD 3617·DEBRIS·🇺🇸 United States

Wystrzelony Dec 12, 1968 z Vandenberg Space Force Base

Loading…

Następne Przeloty (najbliższe 24 godziny)

TLE

ŚwieżeSource: Space-Track

Epoka: Sep 14, 2026, 05:31 UTC

1 03617U 68112C   26257.23020721  .00000067  00000-0  33486-3 0  9994
2 03617  80.1849 333.9045 0044074 340.0629  47.1805 12.63544816662266

Śledź OPS 7684 DEB w czasie rzeczywistym z AllMySat

Download on the App Store